Location: 10033 Water Well
(34.0865°N, 106.8959°W)
Time: 16:32:12
(UTC+00:00)

Meteor 1-13 Rocket - Pass Details

Date: 13 January 2026
Orbit: 830 x 910 km, 81.3° (Epoch: 11 February)

Event Time Altitude Azimuth Distance (km) Brightness Sun altitude
Exits shadow 11:49:54 38° 7° (N) 1,355 5.2 -29.2°
Maximum altitude 11:52:15 71° 81° (E) 957 4.5 -28.8°
Drops below altitude 10° 11:58:07 10° 165° (SSE) 2,572 6.9 -27.6°
Sets 12:00:34 0° 168° (SSE) 3,502 7.7 -27.1°
